HB9FHL-13 Weather Reports


time (UTC)temp
C
wind
direction
speed
KPH
gust
KPH
rain 1hr
cm
rain 24hr
cm
rain mn
cm
humidity
%
barometer
mb
20260502214154 18 218 6.4 8.0 0.00 0.00 0.00 1018.9
20260502213653 18 219 6.4 9.7 0.00 0.00 0.00 1015.0
20260502213153 18 224 3.2 6.4 0.00 0.00 0.00 1017.2
20260502212151 17 232 4.8 4.8 0.00 0.00 0.00 1020.2
20260502211650 17 232 4.8 6.4 0.00 0.00 0.00 1018.1
20260502211150 19 221 4.8 6.4 0.00 0.00 0.00 1014.9
20260502210148 20 218 6.4 8.0 0.00 0.00 0.00 1017.7
20260502205648 20 219 6.4 9.7 0.00 0.00 0.00 1015.5
20260502205147 19 231 6.4 9.7 0.00 0.00 0.00 1019.7
20260502204647 20 233 4.8 8.0 0.00 0.00 0.00 1017.4
20260502204239 20 221 4.8 8.0 0.00 0.00 0.00 1018.6
20260502204146 20 221 4.8 8.0 0.00 0.00 0.00 1018.6
20260502203646 20 232 4.8 8.0 0.00 0.00 0.00 1018.7
20260502203145 20 229 6.4 8.0 0.00 0.00 0.00 1016.6
20260502202645 20 233 6.4 9.7 0.00 0.00 0.00 1021.3
20260502202144 19 225 4.8 9.7 0.00 0.00 0.00 1015.0
20260502201644 19 225 4.8 6.4 0.00 0.00 0.00 1017.4
20260502201141 20 218 3.2 3.2 0.00 0.00 0.00 1017.9
20260502200641 19 232 3.2 4.8 0.00 0.00 0.00 1016.4
20260502200140 19 228 1.6 4.8 0.00 0.00 0.00 1015.6
20260502195640 18 224 1.6 3.2 0.00 0.00 0.00 1016.9
20260502195139 19 235 1.6 4.8 0.00 0.00 0.00 1020.4
20260502194639 18 226 3.2 4.8 0.00 0.00 0.00 1015.7
20260502194139 18 226 3.2 4.8 0.00 0.00 0.00 1017.4
20260502193638 18 231 3.2 3.2 0.00 0.00 0.00 1017.4
20260502193138 18 224 3.2 3.2 0.00 0.00 0.00 1021.3
20260502192637 18 228 3.2 4.8 0.00 0.00 0.00 1020.8
20260502192137 18 231 3.2 3.2 0.00 0.00 0.00 1019.1
20260502191636 18 224 3.2 3.2 0.00 0.00 0.00 1016.9
20260502191136 18 219 3.2 4.8 0.00 0.00 0.00 1017.8
20260502190635 18 218 4.8 4.8 0.00 0.00 0.00 1014.5
20260502190134 19 219 3.2 4.8 0.00 0.00 0.00 1019.8
20260502185633 20 231 1.6 3.2 0.00 0.00 0.00 1018.7
20260502185128 18 225 3.2 4.8 0.00 0.00 0.00 1014.4
20260502184629 19 231 1.6 3.2 0.00 0.00 0.00 1017.2
20260502184127 19 219 3.2 4.8 0.00 0.00 0.00 1024.0
20260502183626 19 222 3.2 3.2 0.00 0.00 0.00 1019.5
20260502183126 19 229 1.6 3.2 0.00 0.00 0.00 1011.9
20260502182625 20 228 0.0 3.2 0.00 0.00 0.00 1020.6
20260502182125 19 215 1.6 3.2 0.00 0.00 0.00 1013.5
20260502181624 20 222 1.6 4.8 0.00 0.00 0.00 1016.7
20260502181124 20 219 0.0 3.2 0.00 0.00 0.00 1011.3
20260502180623 20 221 0.0 3.2 0.00 0.00 0.00 1017.2
20260502180123 21 0 0.0 0.0 0.00 0.00 0.00 1017.1
20260502170114 21 49 6.4 8.0 0.00 0.00 0.00 1014.8
20260502164112 22 32 4.8 8.0 0.00 0.00 0.00 1015.9
20260502163612 22 13 3.2 8.0 0.00 0.00 0.00 1013.5
20260502163111 21 69 6.4 9.7 0.00 0.00 0.00 1016.5
20260502162612 21 23 3.2 9.7 0.00 0.00 0.00 1017.8
20260502162110 22 66 6.4 9.7 0.00 0.00 0.00 1018.5
20260502161610 21 20 4.8 9.7 0.00 0.00 0.00 1014.7
20260502161110 22 89 4.8 8.0 0.00 0.00 0.00 1014.4
20260502160608 20 58 4.8 8.0 0.00 0.00 0.00 1017.6
20260502160108 21 80 6.4 9.7 0.00 0.00 0.00 1015.6
20260502152058 21 52 8.0 14.5 0.00 0.00 0.00 1018.5
20260502151053 20 10 8.0 11.3 0.00 0.00 0.00 1014.7
20260502150553 21 46 8.0 12.9 0.00 0.00 0.00 1020.2
20260502130534 20 21 6.4 14.5 0.00 0.00 0.00 1024.4
20260502123029 19 91 8.0 16.1 0.00 0.00 0.00 1017.8
20260502122529 20 75 8.0 14.5 0.00 0.00 0.00 1020.6
20260502122029 19 83 8.0 16.1 0.00 0.00 0.00 1022.4
20260502121528 19 89 9.7 12.9 0.00 0.00 0.00 1027.6
20260502121028 20 76 11.3 14.5 0.00 0.00 0.00 1017.7
20260502120526 20 89 6.4 12.9 0.00 0.00 0.00 1022.8
20260502115525 20 59 8.0 16.1 0.00 0.00 0.00 1018.2
20260502115024 19 330 6.4 14.5 0.00 0.00 0.00 1023.8
20260502114524 20 356 4.8 9.7 0.00 0.00 0.00 1028.4
20260502114023 19 347 3.2 11.3 0.00 0.00 0.00 1020.7
20260502113523 20 51 9.7 14.5 0.00 0.00 0.00 1031.3
20260502113022 18 14 6.4 11.3 0.00 0.00 0.00 1024.9
20260502112521 18 55 9.7 14.5 0.00 0.00 0.00 1019.2
20260502112020 19 24 4.8 11.3 0.00 0.00 0.00 1020.1
20260502111518 18 39 6.4 11.3 0.00 0.00 0.00 1021.5
20260502111018 18 31 8.0 12.9 0.00 0.00 0.00 1024.2
20260502110517 18 55 9.7 12.9 0.00 0.00 0.00 1021.3
20260502110017 18 60 9.7 14.5 0.00 0.00 0.00 1022.8
20260502105516 17 83 9.7 14.5 0.00 0.00 0.00 1021.3
20260502105015 17 55 9.7 16.1 0.00 0.00 0.00 1022.2
20260502104514 18 91 8.0 11.3 0.00 0.00 0.00 1027.0
20260502104013 18 75 9.7 16.1 0.00 0.00 0.00 1021.5
20260502103513 18 73 8.0 16.1 0.00 0.00 0.00 1025.2
20260502103012 18 23 6.4 11.3 0.00 0.00 0.00 1024.9
20260502102514 17 73 11.3 16.1 0.00 0.00 0.00 1023.2
20260502102011 18 87 9.7 16.1 0.00 0.00 0.00 1026.6
20260502101510 17 45 9.7 12.9 0.00 0.00 0.00 1024.0
20260502101010 18 89 8.0 12.9 0.00 0.00 0.00 1024.0
20260502100511 18 75 8.0 12.9 0.00 0.00 0.00 1025.3
20260502091503 18 34 9.7 12.9 0.00 0.00 0.00 1023.6
20260502091002 18 46 6.4 12.9 0.00 0.00 0.00 1024.5
20260502090502 17 44 6.4 11.3 0.00 0.00 0.00 1028.1
20260502071440 16 333 0.0 4.8 0.00 0.00 0.00 1026.9
20260502070941 16 70 1.6 3.2 0.00 0.00 0.00 1025.7
20260502070439 16 46 1.6 3.2 0.00 0.00 0.00 1024.1
20260502065940 16 62 3.2 6.4 0.00 0.00 0.00 1025.4
20260502065438 17 70 3.2 6.4 0.00 0.00 0.00 1025.3
20260502064937 16 226 1.6 4.8 0.00 0.00 0.00 1020.7
20260502064437 16 221 1.6 3.2 0.00 0.00 0.00 1024.4
20260502063936 17 298 0.0 4.8 0.00 0.00 0.00 1025.1
20260502063434 16 0 0.0 0.0 0.00 0.00 0.00 1027.2
20260502062930 15 225 1.6 3.2 0.00 0.00 0.00 1022.7
20260502062430 16 0 0.0 0.0 0.00 0.00 0.00 1023.8
20260502061930 16 0 0.0 0.0 0.00 0.00 0.00 1023.1
20260502061426 16 7 1.6 3.2 0.00 0.00 0.00 1025.7
20260502060925 16 28 0.0 3.2 0.00 0.00 0.00 1024.6
20260502060425 16 0 0.0 0.0 0.00 0.00 0.00 1022.5
20260502055925 16 0 0.0 0.0 0.00 0.00 0.00 1023.1
20260502055423 16 356 1.6 4.8 0.00 0.00 0.00 1024.6
20260502054922 16 0 0.0 0.0 0.00 0.00 0.00 1023.8
20260502054422 16 218 0.0 3.2 0.00 0.00 0.00 1024.4
20260502053921 16 229 0.0 3.2 0.00 0.00 0.00 1024.1
20260502053421 16 0 0.0 0.0 0.00 0.00 0.00 1024.6
20260502052920 16 0 0.0 0.0 0.00 0.00 0.00 1022.3
20260502052420 16 0 0.0 0.0 0.00 0.00 0.00 1022.1
20260502051920 16 240 1.6 4.8 0.00 0.00 0.00 1025.1
20260502051419 16 233 3.2 9.7 0.00 0.00 0.00 1020.4
20260502050918 16 212 3.2 4.8 0.00 0.00 0.00 1027.5
20260502050418 16 236 3.2 6.4 0.00 0.00 0.00 1026.1
20260502045918 16 262 4.8 8.0 0.00 0.00 0.00 1026.4
20260502045417 16 248 3.2 8.0 0.00 0.00 0.00 1022.8
20260502044916 16 0 0.0 0.0 0.00 0.00 0.00 1026.3
20260502044416 15 193 0.0 3.2 0.00 0.00 0.00 1023.7
20260502043915 15 0 0.0 0.0 0.00 0.00 0.00 1023.6
20260502043415 14 221 0.0 3.2 0.00 0.00 0.00 1028.1
20260502042914 14 0 0.0 0.0 0.00 0.00 0.00 1023.8
20260502042413 15 225 1.6 3.2 0.00 0.00 0.00 1024.5
20260502041913 15 0 0.0 0.0 0.00 0.00 0.00 1023.6
20260502041412 14 200 0.0 0.0 0.00 0.00 0.00 1023.0
20260502040358 15 200 0.0 1.6 0.00 0.00 0.00 1021.8
20260502035856 15 224 1.6 6.4 0.00 0.00 0.00 1024.2
20260502035356 14 219 3.2 6.4 0.00 0.00 0.00 1027.5
20260502034855 14 231 3.2 4.8 0.00 0.00 0.00 1021.8
20260502033353 14 0 0.0 0.0 0.00 0.00 0.00 1024.4
20260502032853 15 0 0.0 0.0 0.00 0.00 0.00 1025.6
20260502032352 15 0 0.0 0.0 0.00 0.00 0.00 1023.6
20260502031851 15 0 0.0 0.0 0.00 0.00 0.00 1023.3
20260502031351 15 214 0.0 0.0 0.00 0.00 0.00 1024.9
20260502030350 15 93 0.0 1.6 0.00 0.00 0.00 1025.6
20260502025849 15 201 0.0 3.2 0.00 0.00 0.00 1023.2
20260502025349 14 84 0.0 4.8 0.00 0.00 0.00 1026.4
20260502024848 15 0 0.0 0.0 0.00 0.00 0.00 1023.2
20260502024348 14 89 0.0 1.6 0.00 0.00 0.00 1023.6
20260502023346 15 0 0.0 0.0 0.00 0.00 0.00 1023.6
20260502022846 14 222 0.0 1.6 0.00 0.00 0.00 1022.5
20260502022345 15 0 0.0 0.0 0.00 0.00 0.00 1026.1
20260502021845 15 231 0.0 3.2 0.00 0.00 0.00 1024.3
20260502021344 14 210 0.0 3.2 0.00 0.00 0.00 1021.3
20260502020341 15 0 0.0 0.0 0.00 0.00 0.00 1025.1
20260502015840 14 0 0.0 0.0 0.00 0.00 0.00 1024.3
20260502015339 15 224 1.6 3.2 0.00 0.00 0.00 1022.6
20260502014839 13 224 0.0 3.2 0.00 0.00 0.00 1024.3
20260502014338 14 228 0.0 1.6 0.00 0.00 0.00 1025.0
20260502013837 14 210 0.0 1.6 0.00 0.00 0.00 1021.8
20260502013337 15 221 3.2 4.8 0.00 0.00 0.00 1023.2
20260502012836 14 210 0.0 3.2 0.00 0.00 0.00 1022.3
20260502012336 15 0 0.0 0.0 0.00 0.00 0.00 1024.7
20260502011835 15 233 1.6 4.8 0.00 0.00 0.00 1030.4
20260502011335 14 221 4.8 6.4 0.00 0.00 0.00 1022.5
20260502010834 15 214 1.6 4.8 0.00 0.00 0.00 1025.6
20260502010334 15 93 0.0 1.6 0.00 0.00 0.00 1027.0
20260502005834 15 0 0.0 0.0 0.00 0.00 0.00 1025.7
20260502005333 15 58 0.0 3.2 0.00 0.00 0.00 1021.6
20260502004832 15 55 0.0 3.2 0.00 0.00 0.00 1028.5
20260502004332 16 200 1.6 6.4 0.00 0.00 0.00 1021.5
20260502003832 15 233 0.0 3.2 0.00 0.00 0.00 1021.5
20260502003331 15 229 0.0 3.2 0.00 0.00 0.00 1025.2
20260502002831 15 228 0.0 1.6 0.00 0.00 0.00 1022.1
20260502002330 14 229 0.0 4.8 0.00 0.00 0.00 1024.5
20260502001829 14 222 0.0 4.8 0.00 0.00 0.00 1025.7
20260502001328 13 229 3.2 6.4 0.00 0.00 0.00 1024.9
20260502000828 15 231 1.6 4.8 0.00 0.00 0.00 1028.8
20260502000327 16 219 1.6 4.8 0.00 0.00 0.00 1023.2
20260501235827 15 276 0.0 1.6 0.00 0.00 0.00 1023.1
20260501235326 16 79 1.6 8.0 0.00 0.00 0.00 1025.4
20260501234826 16 87 3.2 9.7 0.00 0.00 0.00 1021.0
20260501234325 16 94 4.8 6.4 0.00 0.00 0.00 1024.2
20260501233825 16 239 1.6 6.4 0.00 0.00 0.00 1026.3
20260501233324 16 97 1.6 6.4 0.00 0.00 0.00 1020.1
20260501232824 16 132 1.6 6.4 0.00 0.00 0.00 1021.1
20260501232324 16 105 1.6 6.4 0.00 0.00 0.00 1025.0
20260501231823 17 121 3.2 8.0 0.00 0.00 0.00 1028.1
20260501231321 17 124 3.2 11.3 0.00 0.00 0.00 1025.4
20260501230820 17 229 1.6 8.0 0.00 0.00 0.00 1021.0
20260501230320 16 207 8.0 17.7 0.00 0.00 0.00 1029.0
20260501225819 17 225 8.0 14.5 0.00 0.00 0.00 1023.3
20260501225319 17 231 6.4 16.1 0.00 0.00 0.00 1027.1
20260501224818 17 222 6.4 11.3 0.00 0.00 0.00 1022.0
20260501224318 16 255 3.2 9.7 0.00 0.00 0.00 1024.0
20260501223817 16 0 0.0 0.0 0.00 0.00 0.00 1025.1
20260501223317 16 228 1.6 4.8 0.00 0.00 0.00 1023.2
20260501222816 17 0 0.0 0.0 0.00 0.00 0.00 1023.5
20260501222315 16 231 0.0 3.2 0.00 0.00 0.00 1022.8
20260501221815 17 121 1.6 3.2 0.00 0.00 0.00 1024.0
20260501221314 16 0 0.0 0.0 0.00 0.00 0.00 1022.3
20260501220814 17 218 1.6 8.0 0.00 0.00 0.00 1024.0
20260501220313 16 212 6.4 11.3 0.00 0.00 0.00 1022.4
20260501215312 17 219 8.0 11.3 0.00 0.00 0.00 1026.2